| time (UTC) | temp C | wind direction | speed KPH | gust KPH | rain 1hr cm | rain 24hr cm | rain mn cm | humidity % | barometer mb |
| 20260504050420 | 18 | 39 | 0.0 | 1.6 | 0.00 | 0.03 | 0.00 | 84 | 1015.0 |
| 20260504045420 | 18 | 40 | 0.0 | 1.6 | 0.00 | 0.03 | 0.00 | 84 | 1015.3 |
| 20260504044419 | 18 | 40 | 0.0 | 1.6 | 0.00 | 0.03 | 0.00 | 84 | 1015.3 |
| 20260504043417 | 18 | 39 | 0.0 | 1.6 | 0.00 | 0.03 | 0.00 | 84 | 1015.3 |
| 20260504042417 | 18 | 18 | 0.0 | 1.6 | 0.00 | 0.03 | 0.00 | 84 | 1015.3 |
| 20260504041416 | 18 | 70 | 1.6 | 1.6 | 0.00 | 0.03 | 0.00 | 83 | 1015.3 |
| 20260504040414 | 18 | 71 | 0.0 | 1.6 | 0.00 | 0.03 | 0.00 | 83 | 1015.3 |
| 20260504035414 | 18 | 37 | 0.0 | 1.6 | 0.00 | 0.03 | 0.03 | 83 | 1015.3 |
| 20260504034413 | 18 | 37 | 0.0 | 1.6 | 0.00 | 0.05 | 0.03 | 83 | 1015.3 |
| 20260504033412 | 18 | 37 | 0.0 | 0.0 | 0.00 | 0.08 | 0.03 | 83 | 1015.3 |
| 20260504032411 | 18 | 37 | 0.0 | 1.6 | 0.00 | 0.10 | 0.03 | 83 | 1015.3 |
| 20260504031410 | 18 | 37 | 0.0 | 1.6 | 0.00 | 0.13 | 0.03 | 82 | 1015.3 |
| 20260504030409 | 18 | 36 | 1.6 | 1.6 | 0.00 | 0.13 | 0.03 | 82 | 1015.3 |
| 20260504025408 | 18 | 50 | 0.0 | 1.6 | 0.00 | 0.15 | 0.03 | 81 | 1015.3 |
| 20260504024408 | 18 | 32 | 1.6 | 4.8 | 0.00 | 0.15 | 0.03 | 80 | 1015.3 |
| 20260504023407 | 18 | 28 | 1.6 | 6.4 | 0.00 | 0.15 | 0.03 | 80 | 1015.3 |
| 20260504022406 | 19 | 68 | 0.0 | 4.8 | 0.00 | 0.15 | 0.03 | 79 | 1015.3 |
| 20260504021405 | 19 | 356 | 1.6 | 4.8 | 0.00 | 0.18 | 0.03 | 79 | 1015.3 |
| 20260504020302 | 19 | 16 | 3.2 | 6.4 | 0.00 | 0.18 | 0.03 | 78 | 1015.0 |
| 20260504015301 | 19 | 54 | 1.6 | 6.4 | 0.00 | 0.18 | 0.03 | 78 | 1015.0 |
| 20260504014259 | 19 | 13 | 1.6 | 8.0 | 0.00 | 0.18 | 0.03 | 77 | 1015.0 |
| 20260504013258 | 19 | 39 | 1.6 | 6.4 | 0.00 | 0.18 | 0.03 | 77 | 1015.0 |
| 20260504012257 | 20 | 13 | 1.6 | 6.4 | 0.00 | 0.18 | 0.03 | 76 | 1015.0 |
| 20260504011256 | 20 | 20 | 1.6 | 6.4 | 0.00 | 0.18 | 0.03 | 75 | 1014.6 |
| 20260504010256 | 20 | 19 | 1.6 | 6.4 | 0.00 | 0.18 | 0.03 | 75 | 1014.6 |
| 20260504005255 | 20 | 20 | 3.2 | 8.0 | 0.00 | 0.18 | 0.03 | 75 | 1014.6 |
| 20260504004254 | 20 | 22 | 3.2 | 8.0 | 0.00 | 0.18 | 0.03 | 74 | 1015.0 |
| 20260504003253 | 20 | 56 | 1.6 | 6.4 | 0.00 | 0.18 | 0.03 | 73 | 1014.6 |
| 20260504002221 | 21 | 23 | 1.6 | 6.4 | 0.00 | 0.18 | 0.03 | 72 | 1014.6 |
| 20260504001149 | 21 | 36 | 1.6 | 8.0 | 0.00 | 0.18 | 0.03 | 72 | 1014.3 |
| 20260504000117 | 21 | 19 | 1.6 | 8.0 | 0.00 | 0.18 | 0.03 | 71 | 1014.3 |
| 20260503235116 | 21 | 12 | 1.6 | 8.0 | 0.00 | 0.18 | 0.03 | 70 | 1014.3 |
| 20260503234115 | 21 | 22 | 3.2 | 11.3 | 0.00 | 0.18 | 0.03 | 69 | 1014.3 |
| 20260503233114 | 21 | 75 | 3.2 | 12.9 | 0.00 | 0.18 | 0.03 | 68 | 1014.3 |
| 20260503231940 | 22 | 17 | 3.2 | 11.3 | 0.00 | 0.18 | 0.03 | 68 | 1014.3 |
| 20260503230908 | 22 | 69 | 3.2 | 11.3 | 0.00 | 0.18 | 0.03 | 68 | 1014.3 |
| 20260503225907 | 22 | 31 | 4.8 | 12.9 | 0.00 | 0.18 | 0.03 | 66 | 1014.3 |
| 20260503224906 | 22 | 23 | 4.8 | 12.9 | 0.00 | 0.18 | 0.03 | 66 | 1014.3 |
| 20260503223905 | 22 | 54 | 3.2 | 11.3 | 0.00 | 0.18 | 0.03 | 66 | 1014.3 |
| 20260503222904 | 22 | 24 | 4.8 | 11.3 | 0.00 | 0.18 | 0.03 | 65 | 1014.3 |
| 20260503221904 | 23 | 75 | 1.6 | 12.9 | 0.00 | 0.18 | 0.03 | 64 | 1014.3 |
| 20260503220903 | 23 | 47 | 1.6 | 11.3 | 0.00 | 0.18 | 0.03 | 63 | 1014.0 |
| 20260503215902 | 23 | 47 | 6.4 | 12.9 | 0.00 | 0.18 | 0.03 | 62 | 1014.0 |
| 20260503214901 | 23 | 60 | 3.2 | 11.3 | 0.00 | 0.18 | 0.03 | 60 | 1014.0 |
| 20260503213829 | 23 | 82 | 3.2 | 9.7 | 0.00 | 0.18 | 0.03 | 61 | 1013.6 |
| 20260503212828 | 24 | 20 | 4.8 | 9.7 | 0.00 | 0.18 | 0.03 | 58 | 1014.0 |
| 20260503211828 | 24 | 48 | 3.2 | 11.3 | 0.00 | 0.18 | 0.03 | 59 | 1014.0 |
| 20260503210827 | 24 | 76 | 4.8 | 12.9 | 0.00 | 0.18 | 0.03 | 58 | 1014.0 |
| 20260503205826 | 24 | 53 | 4.8 | 12.9 | 0.00 | 0.18 | 0.03 | 57 | 1014.0 |
| 20260503204825 | 24 | 53 | 4.8 | 14.5 | 0.00 | 0.18 | 0.03 | 57 | 1014.0 |
| 20260503203824 | 24 | 56 | 3.2 | 14.5 | 0.00 | 0.20 | 0.03 | 58 | 1014.0 |
| 20260503202823 | 23 | 45 | 3.2 | 14.5 | 0.00 | 0.25 | 0.03 | 58 | 1014.0 |
| 20260503201823 | 24 | 5 | 4.8 | 12.9 | 0.00 | 0.30 | 0.03 | 57 | 1014.3 |
| 20260503200821 | 24 | 49 | 3.2 | 14.5 | 0.00 | 0.30 | 0.03 | 58 | 1014.0 |
| 20260503195820 | 24 | 11 | 6.4 | 12.9 | 0.00 | 0.30 | 0.03 | 58 | 1014.3 |
| 20260503194820 | 25 | 4 | 4.8 | 11.3 | 0.00 | 0.33 | 0.03 | 58 | 1014.3 |
| 20260503193818 | 25 | 27 | 3.2 | 12.9 | 0.00 | 0.33 | 0.03 | 58 | 1014.6 |
| 20260503192817 | 25 | 41 | 4.8 | 14.5 | 0.00 | 0.33 | 0.03 | 58 | 1014.6 |
| 20260503191816 | 25 | 17 | 4.8 | 14.5 | 0.00 | 0.38 | 0.03 | 57 | 1015.0 |
| 20260503190815 | 25 | 86 | 3.2 | 11.3 | 0.00 | 0.48 | 0.03 | 57 | 1015.3 |
| 20260503185814 | 25 | 48 | 6.4 | 12.9 | 0.00 | 0.66 | 0.03 | 58 | 1015.0 |
| 20260503184813 | 24 | 359 | 3.2 | 16.1 | 0.00 | 0.66 | 0.03 | 60 | 1015.3 |
| 20260503183812 | 24 | 7 | 4.8 | 17.7 | 0.00 | 0.66 | 0.03 | 60 | 1015.3 |
| 20260503182812 | 25 | 33 | 4.8 | 11.3 | 0.00 | 0.66 | 0.03 | 58 | 1015.3 |
| 20260503181810 | 25 | 59 | 3.2 | 11.3 | 0.00 | 0.66 | 0.03 | 57 | 1015.3 |
| 20260503180809 | 25 | 27 | 4.8 | 14.5 | 0.00 | 0.66 | 0.03 | 59 | 1015.7 |
| 20260503175808 | 25 | 40 | 6.4 | 16.1 | 0.00 | 0.66 | 0.03 | 57 | 1015.7 |
| 20260503174808 | 24 | 22 | 4.8 | 16.1 | 0.00 | 0.66 | 0.03 | 59 | 1015.7 |
| 20260503173735 | 24 | 16 | 6.4 | 14.5 | 0.00 | 0.66 | 0.03 | 59 | 1015.7 |
| 20260503172734 | 23 | 38 | 4.8 | 17.7 | 0.00 | 0.66 | 0.03 | 63 | 1016.0 |
| 20260503171702 | 23 | 43 | 8.0 | 20.9 | 0.00 | 0.66 | 0.03 | 63 | 1016.0 |
| 20260503170701 | 23 | 14 | 8.0 | 19.3 | 0.00 | 0.66 | 0.03 | 65 | 1016.0 |
| 20260503150517 | 22 | 19 | 9.7 | 27.4 | 0.00 | 0.66 | 0.03 | 74 | 1016.0 |
| 20260503131333 | 19 | 32 | 3.2 | 16.1 | 0.00 | 0.66 | 0.03 | 89 | 1015.0 |
| 20260503130332 | 18 | 22 | 4.8 | 12.9 | 0.00 | 0.66 | 0.03 | 91 | 1015.3 |
| 20260503110148 | 16 | 45 | 1.6 | 6.4 | 0.00 | 0.66 | 0.03 | 96 | 1013.9 |
| 20260503100111 | 16 | 304 | 1.6 | 3.2 | 0.00 | 0.66 | 0.03 | 97 | 1013.6 |
| 20260503080958 | 16 | 33 | 1.6 | 4.8 | 0.00 | 0.66 | 0.03 | 97 | 1012.6 |
| 20260503072923 | 17 | 327 | 0.0 | 1.6 | 0.00 | 0.66 | 0.03 | 97 | 1012.6 |
| 20260503071922 | 17 | 319 | 0.0 | 3.2 | 0.00 | 0.66 | 0.03 | 97 | 1012.6 |
| 20260503070849 | 17 | 351 | 1.6 | 4.8 | 0.00 | 0.66 | 0.03 | 97 | 1012.6 |
| 20260503054708 | 17 | 315 | 0.0 | 1.6 | 0.00 | 0.64 | 0.00 | 97 | 1013.0 |
| 20260503053636 | 17 | 13 | 0.0 | 0.0 | 0.00 | 0.64 | 0.00 | 97 | 1013.0 |